|
NORAD ID: 28645 Int'l Code: 2005-015B
Perigee: 262.5 km
Apogee: 30,455.6 km
Inclination: 0.2 °
Period: 531.3 minutes
Semi major axis: 21730 km
Launch date: April 26, 2005
Source: Sea Launch (SEAL)
Note: This is a ROCKET BODY
Two Line Element Set (TLE):
1 28645U 05015B 13143.46946231 .00002970 00000-0 70640-3 0 1601
2 28645 000.1632 195.9405 6947313 349.8321 001.9668 02.71027042 75068
Source:
NASA's NSSDC Master Catalog entry for BLOCK DM-SL R/B
|